Вернуться в каталог

STARLINK-3271

АктивенСвязьVLEO
NORAD 50167·PAYLOAD·🇺🇸 United States

Запущен Dec 18, 2021 с Vandenberg Space Force Base

Loading…

Ближайшие Пролёты (ближайшие 24 часа)

TLE

СвежийSource: CelesTrak SupGP

Эпоха: Sep 14, 2026, 21:06 UTC

1 50167C 21125M   26257.87965278 -.00020673  00000+0 -59168-3 0  2572
2 50167  53.1579 118.7195 0001346  83.6666 328.7826 15.35397970    18

Отслеживайте STARLINK-3271 в реальном времени с AllMySat

Download on the App Store